TimeEST,TemperatureF,Dew PointF,Humidity,Sea Level PressureIn,VisibilityMPH,Wind Direction,Wind SpeedMPH,Gust SpeedMPH,PrecipitationIn,Events,Conditions,WindDirDegrees,DateUTC
12:48 AM,28.4,24.8,86,29.85,4.0,ENE,4.6,-,N/A,,Haze,60,2012-12-29 05:48:00
12:53 AM,28.9,24.1,82,29.87,4.0,ENE,4.6,-,N/A,,Haze,60,2012-12-29 05:53:00
1:53 AM,28.0,24.1,85,29.85,4.0,NE,4.6,-,N/A,,Overcast,40,2012-12-29 06:53:00
2:43 AM,28.4,24.8,86,29.82,3.0,NNE,3.5,-,N/A,,Overcast,20,2012-12-29 07:43:00
2:53 AM,28.0,24.1,85,29.86,3.0,NNE,3.5,-,N/A,,Overcast,20,2012-12-29 07:53:00
3:53 AM,28.0,24.1,85,29.86,4.0,NNE,4.6,-,N/A,,Overcast,20,2012-12-29 08:53:00
4:36 AM,28.4,24.8,86,29.82,2.5,North,5.8,-,N/A,,Overcast,360,2012-12-29 09:36:00
4:53 AM,28.0,25.0,88,29.85,2.5,North,4.6,-,N/A,,Overcast,360,2012-12-29 09:53:00
4:57 AM,28.4,24.8,86,29.82,3.0,North,4.6,-,N/A,,Overcast,10,2012-12-29 09:57:00
5:08 AM,28.4,24.8,86,29.82,3.0,North,5.8,-,N/A,,Overcast,10,2012-12-29 10:08:00
5:18 AM,28.4,24.8,86,29.82,3.0,North,5.8,-,N/A,,Overcast,10,2012-12-29 10:18:00
5:42 AM,28.4,24.8,86,29.82,3.0,NNE,5.8,-,N/A,,Overcast,20,2012-12-29 10:42:00
5:53 AM,28.0,25.0,88,29.85,3.0,North,4.6,-,N/A,,Overcast,10,2012-12-29 10:53:00
6:53 AM,28.0,25.0,88,29.86,3.0,NNW,5.8,-,N/A,,Overcast,330,2012-12-29 11:53:00
7:53 AM,28.0,24.1,85,29.86,4.0,NW,4.6,-,N/A,,Overcast,320,2012-12-29 12:53:00
8:53 AM,28.0,24.1,85,29.86,3.0,NW,4.6,-,N/A,,Overcast,320,2012-12-29 13:53:00
9:09 AM,28.4,24.8,86,29.84,2.5,NNW,3.5,-,N/A,,Overcast,330,2012-12-29 14:09:00
9:26 AM,28.4,24.8,86,29.84,3.0,NW,3.5,-,N/A,,Overcast,310,2012-12-29 14:26:00
9:48 AM,28.4,24.8,86,29.85,2.5,WNW,4.6,-,N/A,,Haze,300,2012-12-29 14:48:00
9:53 AM,28.9,24.1,82,29.88,2.5,NW,5.8,-,N/A,,Haze,310,2012-12-29 14:53:00
10:53 AM,28.9,25.0,85,29.90,2.0,NNW,4.6,-,N/A,,Overcast,330,2012-12-29 15:53:00
11:03 AM,28.4,24.8,86,29.87,2.5,NNW,3.5,-,N/A,,Overcast,330,2012-12-29 16:03:00
11:29 AM,30.2,24.8,80,29.86,3.0,NW,5.8,-,N/A,,Haze,320,2012-12-29 16:29:00
11:39 AM,30.2,24.8,80,29.87,3.0,NNW,4.6,-,N/A,,Haze,330,2012-12-29 16:39:00
11:53 AM,30.0,25.0,82,29.89,4.0,NW,5.8,-,N/A,,Haze,320,2012-12-29 16:53:00
12:17 PM,30.2,24.8,80,29.86,4.0,WNW,4.6,-,N/A,,Haze,290,2012-12-29 17:17:00
12:48 PM,30.2,24.8,80,29.86,3.0,WNW,4.6,-,N/A,,Haze,300,2012-12-29 17:48:00
12:53 PM,30.0,25.0,82,29.88,3.0,Calm,Calm,-,N/A,,Haze,0,2012-12-29 17:53:00
1:19 PM,30.2,24.8,80,29.86,4.0,West,6.9,-,N/A,,Haze,260,2012-12-29 18:19:00
1:53 PM,30.0,26.1,85,29.89,2.0,WSW,6.9,-,0.00,Snow,Light Snow,240,2012-12-29 18:53:00
2:02 PM,30.2,26.6,86,29.86,1.5,WSW,6.9,-,0.00,Snow,Light Snow,250,2012-12-29 19:02:00
2:24 PM,30.2,26.6,86,29.87,0.8,West,6.9,-,0.00,Snow,Light Snow,260,2012-12-29 19:24:00
2:33 PM,30.2,26.6,86,29.87,0.5,West,9.2,-,0.00,Fog-Snow,Light Snow,260,2012-12-29 19:33:00
2:36 PM,30.2,26.6,86,29.87,0.8,West,10.4,-,0.00,Snow,Light Snow,260,2012-12-29 19:36:00
2:45 PM,30.2,26.6,86,29.88,0.5,West,10.4,-,0.00,Fog-Snow,Snow,270,2012-12-29 19:45:00
2:53 PM,30.0,27.0,88,29.91,0.5,West,6.9,-,0.00,Fog-Snow,Snow,280,2012-12-29 19:53:00
3:09 PM,30.2,26.6,86,29.89,0.5,West,6.9,-,0.01,Fog-Snow,Snow,270,2012-12-29 20:09:00
3:32 PM,30.2,26.6,86,29.90,0.8,WNW,12.7,-,0.01,Snow,Light Snow,290,2012-12-29 20:32:00
3:39 PM,30.2,26.6,86,29.90,1.0,WNW,10.4,-,0.01,Snow,Light Snow,290,2012-12-29 20:39:00
3:53 PM,30.0,27.0,88,29.94,0.8,West,16.1,-,0.01,Snow,Light Snow,280,2012-12-29 20:53:00
4:32 PM,30.2,26.6,86,29.93,1.0,West,13.8,-,0.00,Snow,Light Snow,270,2012-12-29 21:32:00
4:53 PM,30.0,26.1,85,29.97,1.2,West,12.7,-,0.00,Snow,Light Snow,270,2012-12-29 21:53:00
5:01 PM,28.4,26.6,93,29.94,1.0,West,15.0,-,0.00,Snow,Light Snow,270,2012-12-29 22:01:00
5:18 PM,28.4,26.6,93,29.95,0.8,West,12.7,-,0.00,Snow,Light Snow,280,2012-12-29 22:18:00
5:32 PM,28.4,24.8,86,29.95,1.2,WNW,11.5,-,0.00,Snow,Light Snow,290,2012-12-29 22:32:00
5:53 PM,28.9,25.0,85,30.00,1.8,West,11.5,-,0.00,Snow,Light Snow,280,2012-12-29 22:53:00
6:20 PM,28.4,26.6,93,29.98,1.8,West,10.4,-,0.00,Snow,Light Snow,280,2012-12-29 23:20:00
6:53 PM,28.9,26.1,89,30.03,2.0,West,10.4,-,0.00,Snow,Light Snow,270,2012-12-29 23:53:00
7:03 PM,28.4,26.6,93,30.00,1.8,West,10.4,-,0.00,Snow,Light Snow,270,2012-12-30 00:03:00
7:26 PM,28.4,26.6,93,30.01,2.0,West,11.5,-,0.00,Snow,Light Snow,270,2012-12-30 00:26:00
7:34 PM,28.4,26.6,93,30.02,1.8,West,10.4,-,0.00,Snow,Light Snow,280,2012-12-30 00:34:00
7:41 PM,28.4,24.8,86,30.02,2.0,West,10.4,-,0.00,Snow,Light Snow,280,2012-12-30 00:41:00
7:46 PM,28.4,24.8,86,30.02,1.8,West,9.2,-,0.00,Snow,Light Snow,280,2012-12-30 00:46:00
7:53 PM,28.9,25.0,85,30.06,2.0,West,12.7,-,0.00,Snow,Light Snow,280,2012-12-30 00:53:00
8:03 PM,28.4,24.8,86,30.03,1.8,West,11.5,-,0.00,Snow,Light Snow,270,2012-12-30 01:03:00
8:17 PM,28.4,24.8,86,30.04,2.5,West,13.8,-,0.00,Snow,Light Snow,270,2012-12-30 01:17:00
8:53 PM,28.0,25.0,88,30.08,2.5,West,10.4,-,0.00,Snow,Light Snow,260,2012-12-30 01:53:00
9:13 PM,28.4,24.8,86,30.06,2.5,West,11.5,-,0.00,Snow,Light Snow,260,2012-12-30 02:13:00
9:20 PM,28.4,24.8,86,30.06,3.0,West,12.7,-,0.00,Snow,Light Snow,260,2012-12-30 02:20:00
9:53 PM,28.0,24.1,85,30.11,3.0,West,11.5,-,0.00,Snow,Light Snow,260,2012-12-30 02:53:00
10:53 PM,28.0,24.1,85,30.13,7.0,WSW,11.5,-,0.00,,Overcast,250,2012-12-30 03:53:00
11:53 PM,27.0,21.9,81,30.17,7.0,WSW,16.1,-,N/A,,Overcast,250,2012-12-30 04:53:00